Location: Ottobeuren
(47.9410°N, 10.3007°E)
Time: 02:00:21
(UTC+01:00)

N. Korean satellite - Visible Passes

Search period start: 19 February 2019 00:00
Search period end: 01 March 2019 00:00
Orbit: 457 x 510 km, 97.2° (Epoch: 18 February)

Date Brightness Start Highest point End Pass type
(mag) Time Alt. Az. Time Alt. Az. Time Alt. Az.
19 Feb 8.8 06:00:49 10° NE 06:03:51 28° E 06:06:51 10° SSE visible
19 Feb 8.8 18:12:50 10° SSW 18:16:11 33° W 18:19:31 10° NNW visible
20 Feb 9.9 05:36:53 10° NE 05:38:55 15° E 05:40:57 10° SE visible
21 Feb 10.5 18:59:24 10° WSW 19:00:28 11° W 19:01:31 10° WNW visible
22 Feb 7.7 06:19:45 10° NNE 06:23:07 47° E 06:26:27 10° S visible
22 Feb 9.8 18:32:45 10° SW 18:35:30 20° W 18:38:15 10° NW visible
23 Feb 9.2 05:55:23 10° NE 05:58:16 24° E 06:01:05 10° SSE visible
24 Feb 10.1 05:31:40 10° ENE 05:33:18 13° E 05:34:56 10° ESE visible
25 Feb 10.3 18:53:16 10° WSW 18:54:51 12° W 18:56:25 10° WNW visible
26 Feb 8.0 06:14:13 10° NNE 06:17:31 40° E 06:20:45 10° S visible
26 Feb 9.6 18:27:00 10° SSW 18:29:53 23° W 18:32:47 10° NW visible
27 Feb 9.4 05:49:56 10° NE 05:52:37 21° E 05:55:17 10° SE visible
28 Feb 10.2 05:26:34 10° ENE 05:27:38 11° E 05:28:41 10° ESE visible
